[[{"header":{"parameterUnit":"m.s-1","parameterCategory":1,"la1":30.2991,"la2":30.254,"lo1":-89.0895,"lo2":-89.0444,"dy":0.0017,"dx":0.0017,"nx":28,"ny":28,"refTime":"2023-09-22T21:00:00:Z","depth":0,"parameterNumber":2,"parameterNumberName":"U-component_of_WINDS"},"data":[0,0,0,0,0,0,0,0,0,0,0,0,0,0,0,0,0,0,0,0,0,0,0,0,0,0,0,0,0,0,0,0,0,0,0,0,0,0,0,0,0,0,0,0,0,0,0,0,0,0,0,0,0,0,0,0,0,0,-2.7545,-2.7545,0,-2.7492,-2.7491,-2.7491,-2.7364,-2.7362,-2.7359,-2.7357,-2.7305,-2.7306,-2.7307,0,0,0,0,0,0,0,0,0,0,0,0,0,-2.7543,-2.7543,-2.7545,-2.7545,-2.7544,-2.7492,-2.7491,-2.749,-2.7365,-2.7362,-2.7358,-2.7355,-2.7305,-2.7306,-2.7308,0,0,0,0,0,0,0,0,0,0,0,0,0,-2.7522,-2.7544,-2.7545,-2.7475,-2.7468,-2.7492,-2.7491,-2.749,-2.7365,-2.7361,-2.7358,-2.7354,-2.7305,-2.7306,-2.7308,-2.7397,0,0,-2.7313,-2.7313,0,0,0,0,0,0,0,0,-2.7524,-2.7522,-2.7486,-2.748,-2.7472,-2.7431,-2.7471,-2.7459,-2.7366,-2.7405,-2.7356,-2.7352,-2.735,-2.7348,-2.7347,-2.7394,-2.7392,-2.7313,-2.7314,-2.7315,-2.7315,0,0,0,0,0,0,0,-2.7525,-2.7524,-2.7524,-2.7486,-2.7477,-2.7447,-2.744,-2.7468,-2.74,-2.7401,-2.7392,-2.7387,-2.7346,-2.7346,-2.7345,-2.7392,-2.7313,-2.7314,-2.7315,-2.7316,-2.7512,-2.7517,0,0,0,0,0,0,-2.7536,-2.7526,-2.7526,-2.7523,-2.7489,-2.7451,-2.7442,-2.7448,-2.74,-2.7388,-2.739,-2.7381,-2.7345,-2.7343,-2.7342,-2.7446,-2.7315,-2.7316,-2.7317,-2.7508,-2.7513,-2.7518,0,0,0,0,0,0,-2.7537,-2.7537,-2.7528,-2.7522,-2.7518,-2.7455,-2.7462,-2.7449,-2.7448,-2.7392,-2.7379,-2.7402,-2.7341,-2.734,-2.7385,-2.7442,-2.7317,-2.7318,-2.7503,-2.751,-2.7516,-2.7652,0,0,0,0,0,0,-2.7537,-2.7538,-2.7571,-2.7523,-2.7519,-2.757,-2.7466,-2.7451,-2.7451,-2.7439,-2.7399,-2.7389,-2.7338,-2.7383,-2.7386,-2.7442,-2.732,-2.7498,-2.7506,-2.7514,-2.7642,-2.7662,-2.7679,0,0,0,0,0,-2.7537,-2.7611,-2.7573,-2.7573,-2.7558,-2.7574,-2.7571,-2.751,-2.7456,-2.7489,-2.7453,-2.739,-2.7435,-2.7388,-2.7391,-2.7448,-2.7494,-2.7504,-2.7513,-2.7634,-2.7658,-2.7679,0,0,0,0,0,0,-2.7667,-2.7604,-2.756,-2.7621,-2.7604,-2.7552,-2.7592,-2.7538,-2.7537,-2.7525,-2.745,-2.7443,-2.7498,-2.7477,-2.7427,-2.7533,-2.7454,-2.7465,-2.7545,-2.7568,-2.7586,-2.7591,-2.7321,0,0,0,0,0,-2.7703,-2.772,-2.7664,-2.7723,-2.7716,-2.7656,-2.766,-2.7615,-2.7595,-2.7587,-2.7554,-2.7538,-2.7548,-2.7556,-2.7563,-2.7638,-2.7629,-2.7679,-2.7697,-2.7713,-2.7724,-2.7765,-2.7787,-2.7549,-2.7549,-2.7549,0,0,-2.7777,-2.7744,-2.7759,-2.7748,-2.7729,-2.775,-2.7651,-2.7676,-2.7692,-2.7591,-2.7632,-2.7607,-2.7584,-2.7645,-2.767,-2.763,-2.7787,-2.7725,-2.7738,-2.774,-2.7777,-2.7799,-2.7819,-2.7556,-2.7555,-2.7554,0,0,-2.7922,-2.7898,-2.7946,-2.7929,-2.7902,-2.7862,-2.7874,-2.7831,-2.7811,-2.785,-2.7775,-2.7793,-2.7812,-2.7799,-2.7795,-2.7939,-2.7882,-2.7943,-2.8041,-2.8082,-2.81,-2.8117,-2.817,-2.819,-2.7953,-2.7953,-2.7954,0,-2.8018,-2.8046,-2.7977,-2.8009,-2.8007,-2.7916,-2.7965,-2.7952,-2.7929,-2.7931,-2.7885,-2.7908,-2.7886,-2.7944,-2.7979,-2.7978,-2.7991,-2.7948,-2.8103,-2.8119,-2.8133,-2.8183,-2.8203,-2.7961,-2.796,-2.7959,-2.7959,0,-2.8166,-2.8186,-2.8228,-2.8208,-2.821,-2.8251,-2.819,-2.8201,-2.8156,-2.8121,-2.8164,-2.8134,-2.8134,-2.8144,-2.81,-2.8197,-2.8173,-2.8116,-2.8036,-2.8164,-2.821,-2.8229,-2.7972,-2.7969,-2.7967,-2.7965,0,0,-2.8392,-2.8334,-2.8351,-2.8342,-2.8306,-2.8321,-2.8358,-2.8357,-2.8369,-2.8357,-2.8387,-2.8406,-2.8354,-2.835,-2.8304,-2.8339,-2.8458,-2.8278,-2.8277,-2.8315,-2.8566,-2.8611,-2.8634,-2.842,-2.8423,-2.8425,-2.8569,0,-2.8531,-2.8589,-2.853,-2.8601,-2.8621,-2.8535,-2.8568,-2.8551,-2.852,-2.8533,-2.8498,-2.8514,-2.8442,-2.844,-2.8471,-2.8437,-2.8508,-2.8425,-2.845,-2.8452,-2.846,-2.8657,-2.8704,-2.884,-2.8586,-2.8589,-2.8591,0,-2.87,-2.8696,-2.877,-2.8731,-2.8737,-2.8767,-2.8762,-2.8775,-2.8755,-2.873,-2.8726,-2.867,-2.8706,-2.8626,-2.8676,-2.8621,-2.8627,-2.8613,-2.8616,-2.8618,-2.8531,-2.8667,-2.8882,-2.8904,-2.8618,-2.8616,-2.8614,0,-2.8861,-2.8873,-2.8919,-2.8914,-2.8869,-2.8893,-2.8876,-2.8851,-2.8855,-2.8851,-2.8854,-2.8855,-2.8856,-2.8859,-2.8806,-2.8752,-2.8863,-2.8778,-2.8846,-2.8847,-2.8874,-2.8874,-2.9096,-2.8875,-2.8875,-2.8874,-2.8874,0,-2.9023,-2.9072,-2.8991,-2.902,-2.9073,-2.9005,-2.906,-2.9034,-2.9013,-2.9037,-2.8962,-2.8987,-2.8914,-2.8931,-2.8889,-2.8938,-2.8939,-2.8921,-2.891,-2.8929,-2.8932,-2.8934,-2.8924,-2.888,-2.8879,-2.8877,-2.8877,0,-2.9212,-2.9159,-2.9205,-2.9159,-2.9149,-2.9191,-2.9152,-2.9178,-2.9142,-2.9173,-2.9176,-2.9121,-2.9137,-2.9084,-2.9092,-2.9064,-2.9136,-2.9108,-2.9143,-2.9136,-2.9207,-2.9202,-2.944,-2.9469,-2.9228,-2.923,-2.9232,0,-2.932,-2.9356,-2.9315,-2.9325,-2.9311,-2.9328,-2.9332,-2.9267,-2.9274,-2.9255,-2.9284,-2.9294,-2.9299,-2.9329,-2.9291,-2.9297,-2.927,-2.9353,-2.9271,-2.929,-2.9274,-2.9274,-2.9278,-2.9371,-2.9374,-2.9377,-2.9378,0,-2.9518,-2.9491,-2.9498,-2.9499,-2.9505,-2.9502,-2.9493,-2.9506,-2.9436,-2.9449,-2.9464,-2.9468,-2.9477,-2.9489,-2.9487,-2.9471,-2.9415,-2.9405,-2.9421,-2.9442,-2.9462,-2.9455,-2.9193,-2.94,-2.9398,-2.9396,-2.9395,-2.9394,-2.9671,-2.97,-2.9676,-2.9688,-2.9675,-2.9669,-2.9692,-2.9659,-2.9671,-2.9672,-2.9633,-2.9658,-2.9638,-2.963,-2.962,-2.9639,-2.9601,-2.9624,-2.963,-2.9637,-2.9651,-2.9457,-2.9638,-2.9637,-2.9637,-2.9636,-2.9636,0,-2.9868,-2.9848,-2.986,-2.9851,-2.9861,-2.9805,-2.9794,-2.9807,-2.9829,-2.9815,-2.9821,-2.9841,-2.9853,-2.9815,-2.9822,-2.9845,-2.982,-2.9849,-2.9848,-2.9846,-2.9683,-2.9669,-2.987,-2.987,-2.987,-2.987,-2.987,-2.987,-2.9971,-3.0018,-2.9988,-3.0028,-3.0008,-3.0031,-3.003,-3.0025,-3.0014,-3.0039,-3.0048,-3.0023,-3.0001,-3.0006,-3.0015,-3.0004,-3.0011,-3.005,-3.0031,-2.988,-2.9857,-2.9835,-2.9822,-3.0052,-3.0052,-3.0192,-3.0194,-3.0195]},{"header":{"parameterUnit":"m.s-1","parameterCategory":1,"la1":30.2991,"la2":30.254,"lo1":-89.0895,"lo2":-89.0444,"dy":0.0017,"dx":0.0017,"nx":28,"ny":28,"refTime":"2023-09-22T21:00:00:Z","depth":0,"parameterNumber":3,"parameterNumberName":"V-component_of_WINDS"},"data":[0,0,0,0,0,0,0,0,0,0,0,0,0,0,0,0,0,0,0,0,0,0,0,0,0,0,0,0,0,0,0,0,0,0,0,0,0,0,0,0,0,0,0,0,0,0,0,0,0,0,0,0,0,0,0,0,0,0,1.2386,1.2386,0,1.2371,1.2371,1.2371,1.2377,1.2378,1.2378,1.2378,1.2359,1.2359,1.2358,0,0,0,0,0,0,0,0,0,0,0,0,0,1.2419,1.2418,1.2386,1.2386,1.2386,1.2371,1.2371,1.2371,1.2377,1.2378,1.2378,1.2378,1.236,1.2359,1.2358,0,0,0,0,0,0,0,0,0,0,0,0,0,1.2404,1.2418,1.2386,1.2388,1.2387,1.2371,1.2371,1.2371,1.2377,1.2378,1.2378,1.2379,1.236,1.2359,1.2357,1.2338,0,0,1.2354,1.2353,0,0,0,0,0,0,0,0,1.2405,1.2403,1.2388,1.2387,1.2387,1.2377,1.2375,1.236,1.2377,1.2381,1.2378,1.2379,1.2364,1.2363,1.2359,1.2337,1.2336,1.2353,1.2353,1.2352,1.2352,0,0,0,0,0,0,0,1.2406,1.2403,1.238,1.2387,1.2387,1.2388,1.2386,1.2372,1.237,1.2381,1.2381,1.2379,1.2364,1.236,1.2358,1.2336,1.2353,1.2352,1.2352,1.2351,1.2297,1.2297,0,0,0,0,0,0,1.2407,1.2404,1.2381,1.238,1.2398,1.2387,1.2385,1.2379,1.237,1.2369,1.2379,1.238,1.2362,1.236,1.2358,1.2333,1.2352,1.2351,1.235,1.2298,1.2297,1.2296,0,0,0,0,0,0,1.2408,1.2405,1.2381,1.2392,1.2389,1.2386,1.2379,1.2379,1.2374,1.2368,1.2368,1.2375,1.2362,1.2359,1.2343,1.2333,1.235,1.2349,1.2299,1.2298,1.2297,1.2285,0,0,0,0,0,0,1.2409,1.2405,1.2399,1.2392,1.2389,1.2368,1.2379,1.2378,1.2372,1.2373,1.2364,1.2363,1.2362,1.2345,1.2342,1.2331,1.2348,1.2299,1.2298,1.2297,1.2286,1.2284,1.2282,0,0,0,0,0,1.241,1.2395,1.2398,1.2395,1.238,1.2367,1.2365,1.2365,1.2372,1.2364,1.236,1.2364,1.2335,1.2343,1.234,1.2329,1.23,1.2299,1.2297,1.2287,1.2284,1.2282,0,0,0,0,0,0,1.24,1.2395,1.2398,1.2381,1.2374,1.2368,1.2359,1.2362,1.2353,1.2354,1.2354,1.2351,1.2334,1.233,1.2339,1.2309,1.2318,1.2316,1.2312,1.2309,1.2307,1.2307,1.2347,0,0,0,0,0,1.2396,1.2387,1.2382,1.2368,1.2365,1.2362,1.2357,1.2357,1.235,1.2347,1.2343,1.2335,1.2324,1.2317,1.2306,1.2287,1.2284,1.2277,1.2275,1.2273,1.227,1.2258,1.2255,1.2291,1.2292,1.2292,0,0,1.2387,1.2383,1.2377,1.2365,1.2361,1.235,1.236,1.2348,1.234,1.2345,1.2329,1.2326,1.2317,1.2298,1.229,1.2294,1.226,1.2271,1.227,1.2268,1.2256,1.2253,1.225,1.229,1.2291,1.2291,0,0,1.2365,1.2362,1.2349,1.2344,1.2337,1.2336,1.2333,1.2326,1.2324,1.2309,1.2312,1.2302,1.2284,1.2277,1.2271,1.2247,1.2249,1.2244,1.2231,1.2219,1.2216,1.2214,1.2203,1.22,1.2242,1.2242,1.2242,0,1.2354,1.2339,1.2341,1.2329,1.2324,1.233,1.2316,1.2311,1.23,1.2296,1.2301,1.2278,1.2273,1.2252,1.2246,1.2242,1.2237,1.2244,1.2217,1.2214,1.2212,1.2202,1.2198,1.2241,1.2241,1.2241,1.2241,0,1.2326,1.2315,1.2305,1.2296,1.229,1.2277,1.2276,1.2269,1.2271,1.2269,1.2252,1.2246,1.2234,1.223,1.2231,1.2209,1.2212,1.2217,1.2226,1.2208,1.2198,1.2195,1.224,1.224,1.2241,1.2241,0,0,1.2295,1.2288,1.2284,1.228,1.2273,1.2264,1.2251,1.2241,1.2234,1.2227,1.2215,1.22,1.2205,1.2198,1.2199,1.2189,1.2168,1.2195,1.2195,1.2189,1.2142,1.2137,1.2132,1.2171,1.217,1.217,1.2142,0,1.2271,1.2249,1.2251,1.223,1.222,1.2225,1.2214,1.2208,1.2206,1.2196,1.2194,1.2182,1.219,1.2186,1.2177,1.2173,1.2159,1.2175,1.2158,1.2157,1.2158,1.2128,1.2122,1.2096,1.2139,1.2138,1.2138,0,1.224,1.2232,1.221,1.2205,1.2201,1.219,1.2181,1.2172,1.2165,1.2164,1.2157,1.2159,1.2145,1.2156,1.2136,1.2147,1.214,1.2137,1.2136,1.2133,1.2145,1.2121,1.2088,1.2084,1.2132,1.2133,1.2133,0,1.2217,1.2202,1.2187,1.2183,1.2177,1.2169,1.2166,1.216,1.2153,1.2145,1.214,1.213,1.2123,1.2115,1.2114,1.2122,1.2093,1.2104,1.209,1.209,1.2081,1.2081,1.2045,1.2081,1.2081,1.2081,1.2081,0,1.2189,1.2175,1.2176,1.2167,1.2151,1.2153,1.2137,1.2135,1.2129,1.2118,1.2123,1.2112,1.2113,1.2102,1.2101,1.2083,1.2081,1.2078,1.2078,1.2077,1.2077,1.207,1.2071,1.208,1.208,1.208,1.2081,0,1.216,1.2161,1.2144,1.214,1.2139,1.2127,1.2123,1.2113,1.2112,1.2098,1.2095,1.2092,1.208,1.2079,1.2064,1.2063,1.2041,1.2044,1.2043,1.2043,1.2028,1.2029,1.1984,1.1977,1.202,1.202,1.202,0,1.2141,1.213,1.2125,1.2119,1.2115,1.2105,1.2098,1.21,1.2093,1.2085,1.2076,1.2064,1.2054,1.2033,1.2029,1.2018,1.2019,1.2004,1.2017,1.2015,1.2016,1.2015,1.2013,1.2,1.2,1.2,1.1999,0,1.2106,1.2107,1.2098,1.2089,1.2082,1.2074,1.2068,1.2062,1.2063,1.2055,1.2042,1.2035,1.202,1.2007,1.1996,1.1992,1.1995,1.1996,1.1992,1.1989,1.1988,1.1986,1.2034,1.1996,1.1996,1.1997,1.1997,1.1997,1.208,1.207,1.2065,1.2055,1.205,1.2044,1.2034,1.2033,1.2023,1.2011,1.2013,1.1999,1.1992,1.1977,1.1972,1.196,1.1965,1.1959,1.1957,1.1955,1.1952,1.1992,1.1958,1.1958,1.1958,1.1958,1.1959,0,1.2043,1.2041,1.2031,1.2022,1.2014,1.202,1.2013,1.2005,1.1992,1.1986,1.1977,1.1962,1.195,1.1946,1.1934,1.1925,1.1926,1.1921,1.1921,1.1919,1.195,1.1954,1.1921,1.1921,1.1921,1.1921,1.1921,1.1921,1.2023,1.2007,1.2007,1.1988,1.1986,1.1972,1.1967,1.1961,1.1956,1.194,1.193,1.1928,1.1922,1.191,1.1899,1.1898,1.1892,1.1886,1.1886,1.1914,1.1917,1.1921,1.1924,1.1886,1.1886,1.1856,1.1856,1.1855]}]]